Location: Rowland
(34.5359°N, 79.2929°W)
Time: 19:16:48
(UTC+00:00)

Transit 2A Rocket - Pass Details

Date: 09 October 2022
Orbit: 589 x 911 km, 66.7° (Epoch: 03 December)

Event Time Altitude Azimuth Distance (km) Brightness Sun altitude
Rises 19:57:11 0° 310° (NW) 3,142 8.3 32.2°
Reaches altitude 10° 20:00:23 10° 289° (WNW) 2,285 8.0 31.6°
Maximum altitude 20:03:24 16° 253° (WSW) 1,978 8.7 31.1°
Drops below altitude 10° 20:06:34 10° 218° (SW) 2,402 8.9 30.6°
Sets 20:10:04 0° 197° (SSW) 3,393 9.0 30.0°
